Theta_e
312 309 308 307 307 309 310 310 311 311 309 306 305 306 307 307 307 306 305 305 305 305 304 303 305 305 305 305 305 305 303 301 301 300 299 297 295 293 293 293 293 294 291 287 287 289 289 289 289 289 289 289 288 288 288 288 288 288 288 288 288 288 287 287 286 286 286 285 285 284 284 283 282 281 280 280 280 279 279 278 278 278 277 277 277 277 277
310 306 306 306 305 306 307 306 306 306 305 304 304 304 304 304 304 303 303 303 303 302 301 302 303 304 303 304 303 303 303 303 302 300 298 296 294 292 293 293 293 292 289 287 287 288 289 289 289 289 289 289 289 289 289 289 289 288 288 288 288 287 287 287 286 286 285 285 284 284 283 282 281 280 280 279 279 278 278 278 277 277 277 276 276 276 276
309 304 303 305 304 304 304 303 303 302 301 302 302 302 302 302 302 302 301 302 302 301 301 302 303 303 302 302 303 304 305 304 302 300 298 296 294 293 293 293 293 290 287 286 287 288 288 289 289 289 289 289 289 289 289 289 288 288 288 287 287 287 286 286 285 285 284 284 283 282 281 280 280 279 279 278 277 277 277 277 277 277 276 276 276 275 275
309 301 299 302 302 302 302 301 301 299 299 300 300 300 301 301 301 300 300 301 300 299 301 301 302 301 300 301 302 302 301 300 300 302 300 296 295 296 295 294 294 293 288 286 287 287 288 289 289 288 289 289 288 288 288 288 287 287 287 287 286 286 285 285 284 284 283 283 281 280 279 279 278 278 277 277 276 276 275 275 275 275 275 274 274 274 274
305 299 299 302 303 303 302 300 300 298 298 298 298 298 299 299 299 299 299 299 299 300 301 301 301 301 300 300 299 297 297 296 297 300 300 298 298 298 298 297 296 292 289 287 288 289 289 289 288 288 288 288 288 287 287 287 286 286 286 286 285 285 284 283 283 282 281 280 279 278 278 277 277 276 275 275 275 274 274 273 273 273 273 273 272 272 272
304 299 299 301 301 301 301 299 300 300 298 298 298 297 298 298 299 300 300 299 299 301 301 301 302 301 297 295 294 294 294 294 294 296 297 299 299 297 298 297 292 289 289 289 289 289 289 288 288 288 288 287 287 286 286 286 286 285 285 285 284 283 282 281 280 279 278 278 277 276 276 275 275 275 274 274 273 272 272 272 272 271 271 270 270 270 269
303 298 299 302 301 301 299 298 300 300 298 298 298 297 298 298 298 299 299 299 300 301 302 300 299 295 292 292 292 292 293 293 293 294 294 295 296 296 296 294 289 287 289 289 289 289 288 288 287 287 287 286 286 286 285 285 285 284 284 283 282 281 280 279 278 277 276 276 275 275 274 274 273 273 272 272 271 271 271 271 270 269 269 268 268 268 267
301 298 300 302 300 298 298 297 297 296 296 296 296 297 297 297 297 298 298 298 298 299 299 295 292 291 290 291 293 294 294 294 292 293 294 294 294 293 293 291 288 288 289 289 289 289 287 287 287 286 286 285 285 285 285 284 283 283 282 281 279 278 277 276 275 275 274 274 273 273 273 272 272 271 270 270 270 270 269 269 268 267 267 267 266 266 266
301 300 300 300 299 298 298 297 295 295 296 298 299 298 298 298 297 296 298 299 297 295 293 290 291 292 291 291 292 293 294 295 293 290 290 292 291 289 289 290 289 289 290 289 289 288 286 286 286 285 284 284 284 283 283 282 281 280 279 278 277 276 275 274 273 273 272 272 272 272 271 270 270 269 268 268 268 268 267 267 266 266 265 265 265 265 265
300 299 299 299 298 298 297 296 296 296 297 300 301 298 298 300 298 296 298 299 295 291 290 290 291 292 291 292 293 292 293 295 294 290 287 287 288 288 289 290 289 289 289 288 287 286 285 284 284 283 283 282 282 282 281 280 279 278 277 276 274 274 273 272 272 272 271 271 271 270 269 268 268 268 267 267 267 266 265 265 265 264 264 264 264 264 264
298 298 299 298 297 297 297 298 297 295 295 299 300 297 298 301 298 294 295 296 293 292 292 291 291 292 292 293 293 292 293 293 292 291 288 287 288 290 289 289 289 288 287 286 285 285 284 283 282 282 281 281 281 281 280 279 278 277 275 274 273 272 271 271 271 271 271 270 270 269 268 267 267 267 267 267 266 265 264 264 264 263 263 263 263 263 263
298 297 297 297 296 297 297 297 296 293 294 297 298 297 298 299 295 292 294 296 295 293 291 290 291 293 293 293 293 293 292 290 287 288 289 288 288 289 288 288 288 287 286 285 284 283 283 282 281 281 281 280 280 279 278 277 276 275 274 273 272 271 271 270 271 270 270 269 268 267 266 266 266 266 266 266 265 264 263 263 263 263 263 263 263 263 263
297 297 297 296 296 297 297 296 295 294 294 296 296 297 299 299 295 291 293 297 295 292 290 290 291 292 292 292 293 292 291 289 288 287 288 288 288 287 287 288 287 286 284 284 283 282 282 281 280 280 279 278 278 277 276 275 274 273 273 272 271 270 270 270 270 270 269 268 267 266 266 266 266 266 265 265 264 263 263 263 262 262 262 262 262 262 262
296 297 297 296 296 298 298 295 293 292 293 295 297 298 299 300 298 293 291 294 293 290 289 290 290 291 291 290 291 291 291 292 290 287 286 286 286 286 286 286 286 285 283 282 281 281 280 279 279 278 277 277 276 276 275 274 273 272 271 271 270 270 270 270 270 269 268 266 266 265 266 266 265 265 265 264 263 263 262 262 262 262 262 262 262 262 262
296 296 297 296 296 296 295 293 292 292 295 299 300 298 296 296 298 295 291 291 290 289 289 289 289 290 290 289 290 291 291 291 289 285 284 285 285 285 285 285 284 284 282 281 280 279 278 278 277 277 276 276 275 275 274 273 272 271 270 269 269 269 269 269 269 268 266 265 265 265 266 265 264 264 264 263 262 262 262 262 262 262 262 262 262 262 262
296 296 296 296 296 295 293 294 295 294 295 298 300 298 295 294 295 294 292 290 288 287 289 290 288 289 289 289 290 290 289 289 287 285 283 284 285 285 285 284 284 283 281 280 279 278 277 276 276 276 275 274 274 273 272 271 271 270 269 268 268 268 268 268 268 267 265 265 265 265 265 265 264 263 263 263 262 262 262 261 261 261 261 262 261 261 262
294 295 297 297 296 295 293 294 296 296 296 296 296 296 296 296 295 292 291 291 289 287 288 289 289 289 289 288 289 289 289 289 288 285 284 284 285 285 284 283 282 281 280 279 278 276 275 275 274 274 273 273 272 272 271 270 270 269 268 268 267 267 267 267 267 266 265 265 265 265 265 264 263 262 262 262 262 262 261 261 261 261 261 261 261 261 261
293 292 295 295 293 293 293 292 294 295 295 295 295 295 295 295 295 292 291 292 290 288 287 288 288 289 289 288 288 288 288 288 286 284 283 284 284 283 282 281 280 279 279 278 276 275 274 273 273 272 272 271 271 271 270 270 269 268 267 267 266 266 267 266 265 264 264 265 265 265 264 263 262 262 262 262 261 261 261 261 261 261 261 261 261 261 262
293 292 293 292 292 292 292 292 292 293 293 292 293 293 293 293 293 292 292 292 291 289 288 288 288 289 288 288 288 287 287 288 286 282 281 282 283 282 282 281 279 278 277 276 275 274 273 272 271 271 271 271 270 270 269 269 268 267 266 266 265 266 266 265 264 264 263 264 264 264 263 262 262 262 262 262 261 261 261 261 261 261 261 262 262 262 263
292 293 293 291 291 292 291 291 291 291 291 291 290 290 291 291 291 291 290 290 290 290 289 287 288 288 288 288 288 287 287 287 285 281 280 281 281 281 281 280 278 277 276 275 274 273 272 271 270 270 270 270 269 269 268 267 266 266 266 265 264 265 264 264 263 263 263 263 263 262 262 262 262 261 262 262 261 261 261 262 262 262 262 263 263 264 265
291 292 292 291 290 290 290 290 290 289 290 291 290 289 289 289 290 290 288 287 287 288 289 288 288 288 288 288 288 287 287 286 284 281 281 282 281 279 279 278 277 276 275 274 273 272 271 270 270 269 270 270 269 268 267 266 265 265 265 264 263 263 263 263 263 263 262 262 262 262 261 261 261 261 262 262 261 262 263 263 263 264 265 265 266 267 267
292 291 291 291 290 291 291 291 290 290 289 289 289 289 289 289 289 289 289 288 286 285 286 287 287 288 288 287 286 287 286 285 283 282 281 281 279 278 277 277 275 275 274 273 272 271 270 269 268 269 269 269 268 267 266 265 265 265 264 263 262 263 263 262 262 262 262 262 262 261 261 261 261 261 262 262 263 263 263 264 265 266 266 267 268 268 269
291 291 291 291 290 291 291 291 291 291 290 289 289 289 289 289 289 288 289 289 288 287 285 284 285 287 288 285 284 286 285 283 282 283 282 280 278 276 276 275 274 273 272 271 271 270 269 268 268 268 269 269 268 266 266 265 264 264 263 262 262 262 262 262 262 262 262 261 261 261 260 260 260 260 261 262 265 265 264 264 265 266 267 267 268 268 269
291 291 291 290 290 290 290 290 291 291 289 289 289 289 289 289 289 288 288 289 288 289 288 285 282 284 285 284 284 286 285 282 281 282 281 279 278 277 275 274 273 272 271 271 270 269 268 268 267 267 268 268 267 265 265 265 264 264 263 262 261 262 262 262 262 262 261 261 261 260 260 260 260 260 260 261 263 266 267 265 264 264 265 266 267 268 268
291 291 291 290 290 290 290 290 290 290 289 288 289 289 288 288 287 286 288 288 286 286 288 288 284 282 283 282 282 284 283 281 280 280 278 277 276 275 274 273 272 272 271 270 269 268 267 267 267 267 268 268 266 265 264 264 264 263 263 262 261 262 262 261 262 262 261 261 260 260 260 260 260 260 260 260 260 263 265 266 265 265 266 266 266 266 267
291 291 291 290 290 290 290 289 289 290 289 287 287 288 287 285 285 285 285 285 284 283 285 286 285 283 283 282 281 281 280 279 278 277 276 275 273 273 272 272 271 270 269 268 267 266 266 266 265 266 268 268 266 264 264 264 263 263 262 262 262 262 262 261 261 261 261 260 260 260 260 260 260 260 260 260 260 261 262 262 263 265 267 267 266 265 265
291 290 290 291 291 290 290 289 289 291 289 287 288 289 286 283 284 284 283 283 283 282 281 282 283 282 280 279 279 278 277 276 275 274 274 273 272 272 271 270 269 268 267 266 266 266 265 265 265 265 267 267 265 263 263 263 263 262 262 262 262 262 262 262 261 260 260 260 260 259 259 259 260 260 260 261 261 261 261 261 261 262 263 265 265 264 264
290 290 290 290 290 291 290 289 289 290 290 288 287 287 285 283 284 284 285 285 283 279 278 278 279 278 277 276 276 275 274 273 272 271 271 271 271 270 270 268 267 267 266 265 266 265 265 265 264 265 267 266 264 263 263 262 262 262 262 262 262 263 263 262 261 260 260 259 259 259 259 260 260 260 260 260 260 261 261 261 261 261 261 262 262 263 264
290 289 289 290 290 290 290 289 289 290 290 287 284 284 284 285 286 286 287 286 282 280 278 276 275 276 275 274 274 273 271 271 270 269 269 269 269 268 267 266 266 265 264 265 265 265 264 264 263 265 266 266 263 263 262 262 262 262 262 262 262 262 262 262 261 260 259 259 259 259 260 260 260 260 260 260 260 261 261 261 261 261 261 261 262 262 263
290 290 290 289 289 289 290 289 289 290 290 288 286 285 285 286 287 287 286 283 281 281 279 273 270 272 273 272 272 273 271 270 269 269 268 268 267 266 265 265 264 263 263 264 265 264 264 263 263 264 266 265 263 262 262 262 262 262 261 261 262 262 261 261 260 259 259 259 259 259 259 259 259 260 260 260 260 260 260 261 261 261 261 261 261 262 262
290 291 291 291 289 289 289 289 288 289 289 288 287 286 284 283 285 286 284 282 281 279 275 270 269 270 271 270 270 271 270 269 268 267 266 265 265 264 263 263 262 262 263 263 264 263 263 262 263 264 265 264 262 262 262 261 261 262 261 261 262 262 261 260 259 259 259 259 259 259 259 259 259 259 259 260 260 260 260 260 260 261 261 261 261 262 262
291 291 291 290 289 287 287 288 288 288 288 287 286 286 284 283 285 286 285 283 280 276 273 272 271 270 269 269 269 268 267 267 266 265 264 264 263 263 262 262 262 262 262 262 262 262 262 261 263 264 264 263 262 262 261 261 261 261 261 262 262 262 262 260 259 259 259 259 259 259 259 259 259 259 259 259 260 260 260 260 260 260 260 261 261 261 261
291 291 290 289 287 286 286 286 286 286 288 286 285 285 284 282 283 284 282 278 276 274 272 272 271 269 267 267 267 266 265 264 263 263 263 263 263 263 262 262 261 261 261 261 261 261 261 261 263 264 263 262 262 262 261 261 261 261 261 261 261 262 262 261 260 259 259 259 259 259 259 259 259 259 259 259 259 259 259 259 260 260 260 260 261 261 261
291 291 290 290 289 288 288 287 286 285 286 285 283 283 281 279 278 277 275 273 274 274 271 269 268 267 266 266 265 264 264 264 264 262 262 262 263 262 261 261 260 260 260 261 261 262 262 262 262 262 262 262 261 261 261 261 261 261 261 261 261 261 261 260 260 260 259 259 259 259 259 259 258 258 259 259 259 259 259 259 259 259 260 260 261 261 261
290 290 290 291 291 289 288 288 287 286 285 285 283 282 278 274 271 271 269 269 271 271 268 267 267 266 265 264 264 262 262 263 263 262 261 261 261 261 260 260 260 259 260 261 262 263 263 263 262 262 262 262 261 261 261 261 260 261 261 261 261 261 261 260 260 260 259 259 259 258 258 258 258 258 258 259 259 259 259 259 259 259 259 260 260 261 261
288 289 291 289 286 286 287 286 285 286 286 284 283 282 276 268 266 267 267 266 266 267 266 265 265 264 263 263 262 262 262 262 261 261 261 260 260 259 259 259 259 259 259 261 264 264 263 262 262 262 261 261 261 261 260 260 261 261 261 261 261 261 260 260 261 260 260 259 258 258 258 258 258 258 258 258 258 259 258 258 259 259 259 260 260 260 260
282 284 290 287 279 278 279 275 271 273 276 274 274 274 270 264 262 264 265 264 264 265 265 265 264 263 262 262 262 262 262 261 260 260 260 259 259 258 258 257 258 257 256 258 262 264 262 261 262 261 260 261 261 260 260 260 261 261 261 261 261 261 260 261 261 261 260 259 258 258 258 258 258 258 258 258 258 258 258 258 259 259 259 260 260 259 260
272 270 274 274 268 266 266 263 262 265 269 267 264 264 263 262 262 263 263 262 263 263 263 263 263 262 261 261 261 260 260 260 259 259 259 258 258 258 257 257 257 257 257 259 261 262 261 260 260 260 260 260 261 260 260 260 261 261 261 261 261 260 260 260 260 260 260 259 259 258 258 258 258 258 258 258 258 258 258 259 259 259 259 259 259 259 259
273 266 264 263 260 258 258 259 259 262 265 265 261 259 259 261 262 261 261 261 261 261 262 261 261 260 259 259 259 259 259 259 259 258 258 258 257 257 256 257 258 259 259 260 261 260 260 260 260 260 260 261 261 260 260 260 261 261 261 261 261 261 260 260 260 260 260 259 259 258 258 258 258 257 258 258 258 258 259 259 259 259 259 259 259 259 259
273 268 263 262 262 260 258 258 257 257 259 261 260 258 259 260 261 259 259 259 259 260 260 260 259 259 258 258 258 259 259 259 258 258 258 257 256 256 255 256 259 261 261 260 260 260 260 260 260 260 261 261 260 260 260 260 261 261 261 261 261 261 260 260 260 260 260 259 259 259 259 258 258 258 258 258 258 259 259 259 259 259 259 259 259 259 260
266 262 260 261 260 259 257 258 257 256 257 259 259 259 260 261 260 259 258 258 258 259 259 259 259 259 258 258 258 258 258 258 258 257 257 256 255 254 254 255 259 261 260 259 259 260 260 260 260 260 261 260 260 260 260 260 261 261 261 261 261 261 260 260 260 260 260 259 259 259 259 258 258 258 258 258 259 259 259 259 259 259 259 259 260 260 260
262 260 260 260 258 256 256 257 257 256 257 257 258 259 260 260 260 259 258 258 258 258 258 258 258 258 258 257 257 257 257 258 258 258 257 256 256 255 254 256 259 260 259 259 259 259 260 260 260 260 260 260 260 260 260 260 261 261 261 261 261 260 261 261 260 260 260 259 259 259 259 258 258 258 258 258 259 260 260 260 260 260 260 260 260 260 260
259 259 260 259 257 255 255 256 256 256 256 256 257 258 259 259 259 259 258 258 258 258 258 258 258 257 257 257 256 256 257 258 258 258 258 258 258 257 256 257 259 260 259 259 259 259 259 260 260 260 260 260 260 260 260 260 260 261 261 261 260 260 261 261 261 260 260 260 260 260 259 258 258 258 258 259 260 260 260 260 260 260 260 260 260 260 260
257 258 257 256 255 255 255 255 256 256 256 256 257 258 258 258 259 259 258 258 258 258 258 258 258 257 257 257 256 256 257 258 258 257 256 255 257 258 259 258 259 259 259 259 259 259 259 260 259 259 259 259 259 260 260 260 260 260 260 260 260 261 260 261 261 260 260 260 260 260 259 259 259 259 258 259 260 260 260 260 260 260 259 260 260 260 260
256 256 256 256 256 256 256 256 256 257 257 256 256 257 258 258 258 258 258 258 258 258 258 258 258 258 258 257 257 257 258 258 257 256 255 254 255 258 259 258 258 258 259 259 259 259 259 259 259 259 259 259 259 259 260 260 260 260 260 260 260 260 260 260 260 260 260 260 260 260 260 260 259 259 259 259 260 260 260 260 260 260 259 260 260 260 260
255 256 256 256 256 255 255 256 257 257 256 256 256 257 257 258 258 258 258 258 258 258 258 258 258 258 258 258 258 258 258 258 258 258 257 256 257 258 258 258 258 258 258 258 258 259 259 259 259 259 259 259 259 259 259 260 260 260 260 260 260 260 260 260 260 260 260 260 260 260 260 260 259 259 260 260 260 260 260 260 260 260 260 260 260 260 260
255 255 254 255 254 254 255 256 257 256 257 257 257 257 257 257 258 258 258 258 258 258 258 258 258 259 259 258 258 258 258 258 258 259 259 258 258 258 258 258 258 259 259 259 258 259 259 259 259 259 259 259 259 259 260 260 260 260 260 260 260 260 260 260 260 260 260 260 260 260 260 260 259 260 260 260 260 260 260 259 259 260 260 260 260 260 260
254 253 253 254 254 254 255 256 256 255 255 257 257 257 257 257 258 258 258 258 258 259 259 259 259 259 259 259 259 259 259 258 257 258 259 259 258 258 258 258 258 259 259 259 259 259 259 259 259 259 259 259 259 260 260 260 260 260 260 260 260 260 260 260 260 260 260 260 260 260 260 260 260 260 260 260 260 260 260 259 259 259 259 260 260 260 260
254 253 253 253 254 255 255 255 254 254 255 257 257 257 257 258 258 258 258 258 259 259 259 259 259 259 259 259 259 259 259 259 258 258 259 259 258 258 258 258 258 259 259 259 259 259 259 259 259 259 259 259 260 260 260 260 260 260 260 260 260 260 260 260 260 260 260 260 260 260 260 260 260 260 260 260 260 260 260 259 259 259 259 259 259 260 260
253 253 253 253 254 255 255 255 255 255 256 257 257 257 257 258 258 258 258 258 258 258 259 258 258 258 259 259 259 259 259 259 259 259 258 258 258 258 258 258 259 259 259 259 259 259 259 259 259 259 259 260 260 260 260 260 260 260 260 260 260 260 260 260 260 260 260 260 260 260 260 260 260 260 260 260 260 260 260 260 260 260 260 259 259 260 260
254 254 254 255 256 257 257 256 256 257 257 257 257 257 257 257 258 258 258 258 258 258 258 258 259 259 259 259 259 259 259 259 259 258 258 258 258 258 258 259 259 259 259 259 260 259 259 260 259 259 259 259 259 259 260 260 260 260 260 260 260 260 260 260 260 260 260 260 259 259 259 259 259 260 260 260 260 260 260 260 260 260 260 260 259 260 260
256 256 256 256 256 256 256 256 256 257 257 257 257 257 257 257 257 257 258 258 258 258 258 258 258 259 259 258 259 259 259 259 259 259 259 258 258 258 259 259 259 259 259 259 259 259 259 260 259 259 259 259 259 259 259 260 260 260 260 260 260 260 260 260 260 260 259 259 259 259 259 259 259 259 259 259 259 259 259 259 259 259 259 259 259 259 259
Wind_Speed
2 4 4 3 3 3 4 6 8 11 10 5 7 6 9 7 6 10 10 6 6 10 9 5 6 7 7 7 7 6 5 5 4 5 6 6 6 6 7 7 8 8 8 10 14 17 17 17 17 17 16 16 14 13 11 9 8 8 7 7 7 7 8 10 12 14 16 19 21 25 27 29 30 31 31 32 33 34 35 35 35 35 36 36 35 36 36
2 2 3 4 4 3 4 7 11 11 9 5 7 10 12 9 9 11 11 10 12 11 8 7 6 6 6 5 3 3 4 5 5 6 6 7 7 8 8 8 8 8 8 12 15 16 17 19 20 19 18 17 16 14 13 11 11 10 9 8 7 7 8 10 13 15 18 21 24 27 29 30 31 31 32 34 36 37 38 39 39 39 39 38 36 36 36
4 1 2 3 2 3 5 9 12 9 3 4 10 12 9 5 8 11 10 9 12 11 6 5 4 2 3 4 4 5 5 5 6 6 7 7 7 8 8 8 7 7 8 12 14 16 19 21 21 21 20 18 17 15 14 12 11 9 8 7 6 6 8 11 13 16 20 23 26 28 29 30 31 32 33 35 36 37 39 39 40 39 39 39 39 37 36
4 2 2 2 2 3 5 12 14 10 5 7 10 7 6 8 9 9 7 6 9 10 4 1 2 3 5 5 6 4 3 4 5 6 7 6 7 7 7 7 7 6 7 10 13 16 19 20 19 18 17 15 13 11 10 7 6 5 5 5 5 7 9 12 15 18 22 25 26 27 28 29 30 32 34 35 36 37 37 37 38 39 39 39 39 38 36
4 4 2 2 5 5 7 11 10 10 10 11 10 7 8 10 7 5 6 7 8 7 3 1 4 6 6 5 5 3 3 4 5 5 6 6 7 7 7 7 6 7 9 10 12 12 13 13 13 12 11 9 6 5 5 5 4 3 3 5 7 10 12 15 18 21 23 24 25 26 27 29 31 32 33 35 35 35 36 36 36 37 38 38 38 37 35
3 5 1 4 1 6 8 4 4 8 10 11 10 10 11 9 7 6 6 6 5 4 5 7 9 7 6 5 4 4 4 4 4 5 5 6 6 6 6 6 6 8 9 9 8 7 6 6 7 7 7 7 7 6 5 4 3 4 6 8 10 13 15 17 19 21 22 23 24 26 27 29 30 31 32 33 34 34 35 36 36 37 38 37 37 35 33
2 2 3 1 8 9 5 3 1 5 7 7 7 8 9 9 8 8 7 7 6 7 7 8 6 4 4 4 4 5 5 5 5 5 5 6 5 5 5 5 7 10 11 10 10 9 9 10 10 10 10 9 8 6 5 4 5 6 9 11 13 15 16 17 18 19 21 22 24 26 27 28 29 30 31 32 33 33 34 35 35 36 36 36 36 35 34
2 2 4 6 7 5 7 7 3 2 2 2 1 5 9 10 9 8 8 9 9 8 6 4 3 4 4 2 3 5 5 5 6 5 6 6 6 7 8 9 12 14 14 14 14 14 14 14 13 12 11 10 8 7 5 6 7 8 10 12 13 14 15 15 17 18 20 22 24 25 26 27 28 29 30 30 31 32 34 35 34 34 35 35 35 36 36
2 3 5 5 4 8 13 10 3 3 3 5 5 4 8 7 6 7 7 9 8 5 4 3 3 3 3 1 4 6 6 6 6 8 8 8 9 10 11 12 13 13 13 14 15 16 15 14 13 11 10 9 7 6 5 6 8 9 10 11 12 13 14 14 16 18 20 22 23 24 25 27 28 28 29 30 30 30 32 34 34 34 35 36 35 34 36
2 3 4 4 3 7 11 6 2 2 4 6 7 3 5 6 5 7 8 7 6 5 4 5 3 4 2 3 5 6 7 6 6 7 10 11 11 11 11 11 12 12 13 15 15 16 15 14 11 10 8 7 5 5 5 7 8 9 11 11 12 13 14 15 18 19 20 21 22 24 24 25 27 28 28 30 30 29 30 33 35 35 35 36 35 33 34
2 3 5 6 6 8 8 6 4 2 4 6 6 3 5 6 5 7 6 6 7 7 7 6 5 4 3 5 5 5 7 7 6 6 8 11 10 9 10 13 14 15 16 15 15 15 14 12 10 8 7 6 5 6 7 8 9 10 11 11 12 14 15 17 18 18 19 20 21 22 24 25 26 27 28 29 30 30 30 32 34 35 34 35 36 34 34
6 6 5 4 5 6 5 5 5 3 3 6 8 1 7 6 5 7 8 8 9 9 7 6 6 6 6 6 6 6 7 7 7 7 8 9 8 8 10 13 15 16 17 17 16 15 13 11 10 8 7 6 6 7 8 8 9 10 11 12 13 15 16 17 18 17 18 19 20 21 23 25 25 26 27 29 30 31 32 32 33 34 33 33 36 36 34
8 8 6 4 4 5 5 5 6 5 4 6 3 6 7 4 6 7 9 10 10 9 8 6 6 7 8 7 5 5 6 5 6 9 11 10 8 9 12 15 16 18 18 17 16 15 13 11 9 8 7 6 6 7 8 9 9 10 11 13 15 16 17 17 17 18 18 18 19 21 22 24 26 26 27 28 30 31 32 33 33 33 33 33 34 35 34
6 6 5 4 5 5 6 5 3 4 4 2 5 7 4 6 8 8 8 9 9 9 10 9 8 8 9 6 4 4 6 6 6 9 10 8 7 8 12 16 19 20 18 17 16 14 12 11 9 8 7 7 7 8 9 9 10 11 12 14 15 15 16 16 17 18 18 18 19 21 21 22 25 27 27 28 29 31 32 33 33 32 32 32 33 34 34
3 3 4 4 6 5 10 9 1 1 4 6 6 4 3 5 7 7 8 9 8 8 9 10 9 9 8 6 6 6 6 6 8 10 11 12 12 14 16 18 21 21 19 18 17 14 12 11 10 9 8 7 8 8 9 9 10 11 12 13 14 15 16 17 17 18 18 19 19 20 21 22 24 26 28 29 29 30 31 31 32 31 31 31 31 32 33
4 5 6 5 4 3 9 10 5 6 8 7 4 4 4 4 5 6 6 8 9 9 10 10 10 9 8 7 7 7 7 7 8 10 12 14 16 17 19 21 22 22 21 19 17 15 13 11 10 9 8 8 8 8 9 9 10 12 12 13 14 15 16 17 18 18 18 19 20 20 21 22 23 26 28 29 29 29 29 29 30 30 30 30 30 31 33
4 5 6 5 2 3 7 8 7 8 10 7 6 6 5 4 5 5 5 7 9 9 10 10 9 8 9 9 8 8 8 8 9 11 13 15 18 19 20 21 22 22 21 19 17 15 13 12 10 10 8 8 8 8 9 10 11 12 12 13 14 15 16 17 18 19 19 20 21 21 21 22 23 25 28 29 29 29 28 28 28 28 29 29 29 31 31
2 2 3 3 2 2 6 9 7 7 8 6 6 6 5 6 6 6 6 8 9 9 10 9 8 8 9 9 9 9 8 8 10 12 13 14 17 19 20 21 22 21 19 17 16 14 13 12 10 9 8 8 8 9 9 10 10 11 12 13 14 15 16 17 18 19 20 21 22 22 22 22 23 25 27 28 29 29 28 28 27 27 28 28 28 29 29
2 2 3 5 5 5 7 9 9 8 7 6 5 6 6 7 7 7 8 9 9 9 9 10 10 11 10 9 9 8 8 8 9 10 11 13 17 20 22 24 23 21 19 17 16 14 13 12 10 9 8 7 8 9 9 9 10 11 12 13 14 16 16 18 18 19 20 22 23 23 23 23 24 25 26 27 28 28 28 28 27 26 26 27 28 28 28
4 4 6 7 6 5 5 7 8 7 8 8 6 6 7 7 7 7 8 8 8 7 8 10 11 12 11 10 10 9 8 8 8 10 13 16 18 20 22 23 23 21 19 17 15 14 12 10 9 9 7 7 8 9 9 8 9 10 11 12 14 16 17 18 19 19 19 21 23 23 24 24 24 26 27 28 28 28 28 28 28 28 29 30 32 32 30
2 4 7 5 2 5 8 10 10 8 8 8 7 7 8 8 8 8 8 8 8 9 9 10 10 11 12 11 11 11 9 7 8 12 15 17 19 21 21 22 22 20 18 15 13 12 10 9 9 8 7 7 8 9 8 8 8 10 11 12 14 16 17 17 18 19 20 21 22 23 24 25 25 26 27 27 28 29 29 28 27 29 32 33 34 34 32
4 6 8 6 3 5 10 12 11 10 9 8 8 8 8 8 10 10 9 9 10 11 12 12 10 10 12 11 11 10 9 9 12 15 16 16 18 20 20 20 19 17 14 13 11 10 9 8 8 8 7 7 7 8 7 7 8 10 11 13 14 16 17 18 19 20 21 21 22 22 23 24 26 27 28 27 26 26 28 28 27 28 31 33 34 35 34
8 9 9 8 7 8 10 10 9 9 7 7 9 10 11 11 11 10 10 11 11 10 12 15 13 11 11 12 12 9 9 13 16 16 16 17 18 20 20 19 17 15 13 11 10 9 8 8 8 8 8 7 7 7 7 7 8 9 10 12 15 16 17 18 19 20 21 21 22 22 22 23 24 26 29 31 30 27 25 25 26 28 30 31 32 32 32
9 10 10 8 7 8 11 10 10 9 7 8 9 11 11 11 11 10 10 11 11 10 10 13 16 15 13 13 12 10 11 15 17 15 16 18 19 19 20 19 17 15 13 11 10 9 8 8 9 9 8 7 6 7 7 7 8 9 10 12 15 17 18 18 19 20 20 20 21 21 22 23 23 23 25 28 33 34 31 28 28 29 29 29 29 28 29
11 12 10 6 7 9 10 8 7 9 8 7 8 9 10 11 11 11 9 9 11 12 10 9 14 19 18 16 16 14 13 13 14 15 15 15 16 17 18 17 15 13 12 11 10 9 8 9 9 10 9 7 6 7 7 7 8 9 10 12 14 16 18 18 19 19 20 20 20 20 21 22 23 23 23 23 26 32 36 38 38 34 29 25 23 24 28
13 12 8 3 4 7 7 4 6 11 12 9 7 7 10 12 13 13 13 13 14 15 13 11 13 17 20 19 18 15 12 10 11 14 16 15 15 16 16 14 13 11 10 10 9 8 9 9 10 11 10 7 6 7 7 7 8 9 11 12 14 16 17 17 17 18 19 19 20 20 21 22 22 23 23 22 23 25 29 33 37 39 38 35 31 29 29
10 10 8 5 5 9 10 9 12 15 12 8 7 8 12 15 15 13 13 14 14 14 14 14 13 12 14 15 13 11 10 11 12 14 15 15 15 14 13 11 11 10 10 10 9 9 10 10 10 11 10 7 6 7 7 8 9 10 11 13 14 15 16 16 16 17 18 19 20 20 21 22 22 22 23 23 23 23 23 24 26 30 34 39 41 39 34
10 9 9 9 12 15 14 11 11 13 10 8 9 11 11 11 10 8 9 10 11 10 10 11 11 10 11 12 11 10 10 11 12 12 13 13 13 11 11 10 10 9 9 10 9 10 10 10 11 12 10 7 6 8 8 8 9 11 12 13 14 15 16 15 15 16 17 18 19 19 20 20 21 21 22 22 22 23 23 23 23 25 27 32 38 39 35
12 10 8 10 14 15 11 6 6 8 9 8 9 9 8 7 7 8 9 9 7 6 6 8 9 10 11 12 13 11 10 10 11 12 12 12 11 10 10 10 9 9 10 10 10 10 10 10 11 13 11 7 6 8 9 9 10 11 12 13 13 14 15 15 15 16 17 18 18 18 18 18 19 21 22 22 22 22 23 23 23 24 26 28 31 34 35
12 7 6 8 10 10 9 9 9 9 9 8 7 7 7 7 8 9 9 7 6 6 7 8 9 9 10 13 14 13 11 11 12 12 12 11 10 10 9 9 8 8 10 10 9 9 9 10 12 14 11 7 7 9 9 9 10 12 12 12 13 13 14 14 14 14 16 17 17 17 17 18 19 19 20 21 22 21 21 22 22 23 24 26 26 26 29
9 6 8 10 10 9 11 11 11 10 9 8 8 7 6 7 8 9 9 7 7 7 8 8 8 10 11 13 13 12 10 10 10 10 10 9 9 8 8 8 8 8 9 10 9 9 10 12 14 13 10 8 9 10 10 10 11 12 12 12 13 13 13 12 12 12 14 16 17 18 18 18 18 19 19 21 21 20 21 22 22 22 23 24 24 24 26
7 5 8 9 8 8 10 10 9 10 10 7 8 9 8 9 10 11 10 8 8 8 8 8 9 11 12 12 11 10 10 9 9 9 8 8 8 7 7 8 8 9 9 10 10 11 12 14 15 13 10 10 10 10 10 11 11 11 12 12 13 13 13 11 11 12 13 14 15 16 17 18 19 19 19 19 19 20 21 21 22 22 22 22 24 26 28
9 9 10 9 6 6 9 9 8 10 11 9 9 10 9 8 9 10 8 7 7 8 8 9 10 12 12 13 12 12 11 9 7 7 8 8 7 6 6 6 7 8 10 11 12 13 14 16 16 13 11 11 11 10 10 11 11 11 12 12 12 12 12 11 11 12 13 13 14 15 16 17 18 19 19 19 19 19 20 21 21 22 22 23 24 26 27
12 13 13 12 9 9 11 12 10 10 10 10 8 8 7 7 7 8 7 7 7 7 8 10 11 13 14 14 13 13 11 8 5 6 8 7 6 5 5 6 7 9 11 13 14 15 16 17 16 14 12 12 11 10 10 11 11 11 11 11 11 12 11 11 11 12 12 12 13 14 15 16 17 17 18 19 19 19 20 20 20 21 22 23 25 26 26
11 11 12 12 10 11 12 12 11 10 10 10 9 8 7 7 7 6 6 7 7 8 10 12 14 15 15 14 13 12 11 9 7 7 7 6 5 5 6 7 9 10 13 15 16 16 16 15 14 13 12 11 10 10 11 11 11 11 11 11 11 11 11 11 11 11 11 11 12 13 14 15 16 16 17 17 17 18 18 19 19 20 20 22 24 26 26
9 10 11 10 8 8 9 8 7 8 9 9 7 6 5 6 8 8 7 8 9 11 13 15 15 15 14 13 12 11 11 10 8 8 7 6 6 6 6 8 9 11 14 16 15 12 10 9 9 9 9 10 11 11 11 11 11 11 10 10 10 10 10 10 10 10 10 10 11 12 13 14 14 15 15 15 15 16 17 18 18 18 19 20 22 24 25
8 8 9 7 4 4 3 1 1 3 5 4 3 5 7 8 9 10 11 11 12 13 14 15 14 12 11 10 9 8 8 7 7 7 6 6 6 7 7 9 10 11 12 13 12 8 5 6 7 8 9 11 12 12 11 11 10 10 9 9 10 10 10 10 9 9 9 10 11 11 12 13 14 14 14 13 14 15 15 16 17 18 18 19 20 22 23
2 0 2 4 5 5 5 4 4 6 8 8 7 7 10 12 13 14 14 13 12 12 12 12 11 10 9 7 6 5 6 6 7 7 7 7 7 8 9 10 12 13 13 14 13 12 11 11 12 13 14 14 13 12 12 11 10 9 9 9 9 9 9 9 9 9 9 10 10 11 11 12 13 14 14 13 13 14 14 15 16 17 18 19 20 21 22
4 4 5 6 7 7 7 8 8 7 9 10 10 10 12 14 15 15 14 13 11 10 10 10 8 8 7 5 5 6 7 6 6 7 8 7 8 10 12 14 16 17 17 18 17 16 16 16 16 15 14 13 12 12 11 10 10 9 9 9 8 9 9 8 8 8 8 9 10 11 11 11 12 13 13 13 13 13 13 14 15 16 17 18 19 20 21
4 4 5 6 7 6 6 7 9 10 10 11 13 12 13 15 16 15 14 12 10 8 8 8 7 7 6 5 6 6 6 5 6 7 8 8 9 11 14 16 17 16 16 16 16 14 13 12 11 11 11 10 11 12 11 10 10 9 8 8 9 9 8 8 7 7 8 8 9 10 10 11 11 12 12 12 13 13 13 14 15 16 17 18 19 20 21
5 5 6 6 6 6 7 8 10 11 12 13 14 14 14 14 14 14 13 11 9 7 6 6 5 5 4 4 5 6 6 7 8 9 9 10 10 10 10 13 16 16 14 13 13 12 11 10 9 9 10 10 11 12 11 10 10 9 8 8 9 8 8 8 7 6 7 8 8 9 9 10 11 12 12 12 12 12 13 14 15 15 16 17 18 19 20
6 7 7 6 6 7 9 10 11 11 12 13 14 13 12 12 12 13 12 10 9 7 6 4 3 3 2 3 5 7 8 9 10 11 11 12 12 11 11 15 18 16 13 12 11 10 10 10 9 10 12 12 12 12 11 10 9 9 8 8 9 9 8 7 7 6 7 7 7 8 8 9 10 11 12 12 12 12 13 14 15 15 16 16 17 18 18
7 8 8 7 7 9 11 12 12 12 11 11 12 12 11 11 12 12 11 9 8 6 5 3 3 3 4 4 6 8 10 10 11 11 12 13 13 14 16 18 18 14 12 12 12 10 12 12 12 13 14 13 12 11 10 9 9 9 9 9 9 8 8 7 7 7 7 7 7 8 8 9 10 11 11 12 12 12 13 14 15 15 16 16 16 17 17
7 8 8 7 9 11 12 12 11 10 10 10 11 11 11 10 10 9 8 7 6 5 3 3 3 3 4 5 7 9 10 10 10 11 10 11 12 13 14 13 11 9 9 9 9 10 12 12 13 14 14 12 11 11 10 9 9 9 9 9 9 9 8 8 8 8 8 8 8 8 9 9 10 10 11 12 12 12 13 14 14 15 16 16 16 16 17
9 9 11 11 11 11 10 10 10 10 11 13 12 10 8 8 7 6 6 5 4 3 2 2 3 3 4 5 7 8 9 10 11 10 9 7 8 10 10 9 9 9 9 8 8 8 10 11 11 12 12 11 11 10 10 9 9 9 9 9 10 9 9 9 9 9 9 9 9 9 9 10 10 10 11 11 12 12 13 14 15 15 16 16 16 17 17
10 11 13 13 12 11 11 12 13 14 15 13 9 6 6 6 6 5 4 3 2 2 1 2 2 3 4 6 7 9 10 11 12 12 11 11 11 11 11 10 11 11 10 9 10 12 13 13 12 12 11 11 11 11 10 10 10 9 10 10 10 10 10 10 11 11 11 10 10 11 11 10 10 11 11 12 12 13 13 14 15 15 15 16 16 17 17
11 11 12 12 13 13 13 13 14 13 11 9 6 5 7 7 6 4 3 2 1 1 0 2 3 3 5 6 7 9 11 12 12 10 7 6 7 7 7 7 8 8 8 9 11 13 14 14 12 10 10 10 11 11 11 11 10 10 10 10 11 11 11 11 12 12 12 11 12 12 12 12 12 12 12 12 13 13 14 15 16 16 16 16 17 17 17
11 11 11 13 14 13 12 12 11 9 7 7 8 8 8 6 5 4 3 2 1 1 1 2 3 3 4 5 6 7 8 9 8 5 4 4 6 7 7 9 10 11 11 13 14 14 13 12 10 9 10 10 11 11 11 11 11 11 11 11 11 12 12 12 12 12 12 12 13 13 13 13 13 13 13 13 14 14 14 16 17 17 17 17 17 17 18
13 13 13 12 12 11 10 10 8 6 7 8 9 8 6 5 5 4 4 2 1 1 2 2 3 3 3 3 4 5 5 6 7 7 7 9 10 11 11 12 12 12 12 13 13 11 9 9 9 9 10 10 10 11 11 11 11 12 12 12 12 12 12 13 13 12 13 13 13 13 14 14 14 14 14 14 14 15 15 16 16 17 17 18 18 18 18
12 12 11 9 9 9 9 7 6 7 8 9 8 6 5 5 5 4 3 2 1 1 2 3 3 3 2 2 3 3 4 5 7 9 10 11 12 12 12 12 11 10 10 10 9 8 8 8 8 9 10 10 11 11 11 11 12 12 12 12 12 12 12 12 12 12 13 14 14 14 14 14 14 14 15 15 15 16 16 16 17 17 17 17 18 18 18
10 9 9 8 8 8 7 6 6 7 7 7 6 5 5 4 3 2 1 1 1 2 4 4 3 1 1 3 3 3 4 5 7 9 10 11 12 12 11 10 9 9 8 8 9 9 9 8 9 10 10 11 12 12 11 11 12 12 11 12 12 12 13 13 13 14 14 14 15 16 16 15 15 16 16 16 16 17 17 17 18 18 18 18 18 19 18
9 9 8 7 6 6 5 5 5 5 5 5 5 4 4 2 1 1 0 0 1 2 4 5 4 3 2 2 3 4 5 7 8 8 8 10 10 10 10 9 9 9 9 9 10 10 10 10 11 12 12 12 12 12 12 12 12 13 13 13 14 14 14 15 15 15 15 15 15 16 16 16 16 17 17 16 17 17 18 18 18 18 18 18 18 19 19
Wind_Direction
255 105 134 173 148 175 213 221 238 250 247 193 154 202 222 199 208 246 253 242 229 246 257 241 210 217 231 243 242 231 226 218 190 176 185 193 189 179 178 184 190 191 193 196 197 198 197 197 201 205 208 211 213 217 225 231 241 260 271 275 288 304 310 313 318 320 322 323 325 326 326 325 325 324 323 323 322 322 322 321 321 319 318 317 316 315 314
267 113 163 188 164 190 230 233 234 241 246 212 184 220 232 219 226 248 257 259 258 256 249 241 246 244 232 229 212 168 174 183 174 177 187 187 184 183 187 195 199 197 200 201 201 203 203 205 209 213 215 218 221 227 235 241 246 254 257 259 272 288 300 309 314 315 317 318 320 322 322 322 322 321 320 320 319 319 318 317 317 317 316 315 314 313 312
294 304 181 190 162 180 232 256 252 241 217 212 225 233 236 229 239 248 252 261 268 266 243 217 241 238 174 171 178 179 187 183 172 182 195 191 191 196 199 204 208 209 210 209 209 210 212 215 219 221 224 227 231 235 241 243 244 243 241 246 263 285 299 308 312 313 315 316 318 319 318 317 317 317 317 317 316 315 315 314 314 314 313 313 311 310 310
278 299 176 204 35 36 281 270 261 244 216 229 240 231 208 216 232 243 247 250 259 265 262 172 190 191 178 187 194 198 209 197 183 190 199 200 201 207 213 217 217 219 220 221 224 225 226 228 231 233 236 238 240 239 238 232 224 218 224 248 278 297 306 311 313 314 314 314 313 314 314 315 315 315 314 313 314 314 313 313 313 311 310 309 308 307 308
268 295 186 139 43 16 282 264 246 232 232 240 247 248 233 224 212 214 230 233 242 254 265 252 238 225 215 209 196 189 203 205 203 204 203 207 214 215 218 223 222 221 225 229 233 238 243 246 247 245 240 234 223 206 192 182 185 212 256 287 299 306 312 314 314 315 312 311 310 310 312 313 312 312 312 312 313 313 312 312 311 309 307 306 304 305 306
249 271 51 72 8 257 257 251 169 193 222 231 233 241 243 228 199 206 233 242 241 233 216 225 235 231 213 197 191 198 198 186 195 213 214 212 219 223 222 221 215 207 208 210 212 214 219 219 214 206 195 181 170 166 170 188 227 269 288 296 302 308 311 312 311 310 308 308 309 309 311 311 311 311 311 311 311 311 311 310 308 306 305 304 304 305 306
194 229 80 116 242 243 269 330 166 191 215 220 224 247 253 237 220 221 237 245 234 220 221 226 225 203 168 161 188 214 214 194 188 210 231 226 220 223 223 217 208 200 192 186 182 177 173 172 172 172 170 168 170 179 197 232 261 282 290 296 303 305 306 306 304 304 306 308 309 310 311 311 310 310 310 311 311 312 310 308 306 304 304 303 304 306 306
161 147 165 218 249 290 303 285 238 180 228 193 202 282 266 242 222 209 220 237 235 226 230 227 178 147 132 139 227 238 233 212 190 200 228 226 211 211 211 204 202 200 194 188 182 173 169 170 171 173 174 177 185 201 223 249 270 285 292 298 303 303 304 305 304 305 308 309 311 311 312 311 310 311 312 312 312 312 310 307 305 304 303 303 304 305 305
176 170 215 246 326 313 284 267 203 180 210 165 152 242 261 246 212 182 194 226 231 215 201 185 153 115 92 16 273 251 241 228 206 208 222 222 217 222 223 215 209 205 198 189 182 175 170 171 172 174 178 186 199 215 237 264 281 292 298 303 306 307 307 306 305 308 310 311 312 312 311 311 312 313 314 313 313 312 309 306 305 304 303 303 303 303 303
121 133 239 272 291 264 261 262 234 199 185 154 147 188 270 268 220 185 184 198 194 170 169 182 149 95 107 264 261 236 234 237 218 218 230 231 228 230 227 216 206 197 188 182 178 175 172 171 174 178 185 197 216 240 267 285 294 302 307 310 309 307 306 305 307 311 313 312 311 311 311 313 314 315 314 313 312 311 308 305 303 302 302 302 301 301 301
143 161 224 234 235 249 253 251 252 207 151 133 103 66 288 263 213 184 171 168 174 176 181 178 146 129 192 247 254 224 225 234 220 215 231 234 233 233 224 213 202 189 180 176 174 175 176 176 180 188 201 221 247 269 281 289 297 305 308 308 306 304 304 306 309 313 314 313 312 312 314 315 315 315 314 313 312 310 306 303 300 300 300 300 300 301 301
210 209 231 234 239 255 245 221 218 191 133 93 82 24 271 252 192 175 165 169 188 192 181 167 159 174 203 232 240 213 208 225 226 217 222 228 230 229 220 211 200 187 179 176 176 178 182 186 191 203 220 240 259 272 280 289 299 305 304 303 302 302 304 308 312 316 316 315 314 315 316 317 317 315 314 313 312 309 305 301 299 298 299 299 299 301 302
224 219 230 255 264 250 217 196 192 175 105 70 110 226 239 201 185 189 178 184 195 186 174 175 188 207 217 221 218 189 180 208 230 226 225 231 243 237 218 203 191 182 181 183 184 185 190 195 203 217 231 247 262 272 284 296 301 301 299 298 299 301 306 312 317 319 317 316 316 318 319 319 317 314 314 313 310 306 304 301 299 298 299 300 300 301 303
227 225 228 259 275 236 179 165 193 164 127 148 221 225 202 170 186 197 193 200 200 184 184 195 206 221 226 221 216 200 188 201 224 227 221 219 222 212 197 189 186 182 181 184 187 189 195 203 213 226 238 255 267 277 289 297 297 296 295 297 300 304 311 317 319 319 318 318 319 320 321 320 317 314 314 312 307 304 302 301 299 298 299 301 301 302 304
179 212 217 229 259 221 148 130 101 212 189 209 219 218 213 188 182 187 199 210 206 192 197 209 217 226 230 224 225 227 217 216 226 227 215 202 195 188 182 186 190 188 186 187 190 194 200 208 221 234 247 261 270 281 292 296 295 294 296 299 304 309 315 319 319 319 319 320 321 322 322 322 317 314 312 309 305 303 302 301 300 299 301 303 303 303 304
155 190 213 213 232 195 151 149 174 208 211 211 181 177 214 213 186 184 202 218 213 198 202 215 220 225 232 229 226 230 231 228 230 229 219 207 199 195 193 195 194 192 190 190 191 197 205 213 228 240 250 262 273 286 296 295 293 295 299 303 308 313 318 319 319 320 321 322 323 323 324 323 317 312 310 307 304 303 301 300 299 299 301 304 304 303 302
173 188 216 224 212 168 176 187 194 204 218 216 170 167 201 216 202 189 195 221 222 205 205 216 218 221 229 229 223 223 225 224 225 226 222 212 205 202 200 197 195 194 195 194 193 198 208 219 232 242 250 265 280 291 295 294 294 298 302 306 310 315 319 320 320 321 321 323 325 325 325 323 316 310 308 306 303 302 301 300 299 299 301 303 303 300 297
220 213 219 218 199 175 199 212 212 210 220 208 170 182 218 226 212 195 193 214 220 207 205 214 221 226 229 228 228 225 222 225 224 221 218 210 204 201 198 194 193 193 194 195 196 201 211 223 234 243 255 274 288 292 291 292 295 299 303 308 312 316 319 319 321 322 321 323 326 326 324 321 314 309 307 304 301 301 301 300 299 300 300 302 300 296 293
220 241 216 198 197 195 194 209 225 239 245 229 186 189 220 228 217 208 208 217 220 209 200 204 219 230 228 225 231 230 221 225 223 213 207 204 201 202 201 197 194 192 191 194 198 204 214 224 234 247 266 285 292 292 290 290 294 297 302 308 312 315 318 319 320 322 323 324 326 325 321 319 314 310 308 304 300 299 299 300 301 300 299 298 296 291 289
211 238 235 215 215 232 220 213 222 234 245 244 223 208 221 231 231 225 219 216 217 215 207 205 216 230 231 224 227 229 222 222 219 208 207 206 204 205 203 197 194 193 195 199 205 211 218 226 237 255 277 293 292 289 289 289 291 296 302 308 312 314 317 318 320 322 323 323 324 321 318 316 313 309 308 306 301 299 300 301 299 297 295 292 288 287 290
237 267 250 230 252 286 268 246 235 230 231 237 236 229 228 233 240 243 236 223 217 219 221 215 212 225 234 228 221 223 222 217 213 211 211 210 207 204 200 197 197 199 202 206 210 217 224 232 245 264 282 291 287 284 285 287 290 296 304 309 311 314 316 318 319 322 323 323 322 319 315 314 311 309 309 306 301 299 301 301 297 294 295 293 291 292 294
236 242 231 210 195 249 252 246 240 235 226 223 230 237 237 234 236 240 242 241 234 229 232 230 216 221 235 231 218 221 221 212 211 213 211 210 207 202 197 196 199 203 207 211 215 221 229 239 254 271 283 285 280 276 277 281 288 296 306 310 310 313 316 318 320 322 323 322 321 317 314 312 311 311 312 310 303 297 297 300 299 296 295 294 296 298 300
236 236 226 206 198 230 248 250 248 240 219 204 214 229 234 233 233 231 231 240 245 241 239 234 221 217 233 229 215 215 222 217 215 215 212 207 202 198 196 195 197 203 210 216 220 226 235 249 263 277 285 283 273 268 271 277 286 297 306 307 306 310 315 318 321 323 321 320 319 315 312 311 310 310 313 317 318 313 305 301 303 303 300 298 299 301 302
239 243 234 209 194 224 243 244 246 246 228 204 209 223 230 232 235 231 224 230 238 240 242 238 225 220 231 232 217 212 221 221 216 213 211 208 203 198 197 198 201 207 213 220 228 235 244 258 270 280 286 282 268 264 267 274 284 297 305 304 303 309 314 318 321 322 320 318 316 313 312 312 312 311 311 315 321 325 325 319 311 305 302 302 305 308 309
234 243 239 201 182 218 239 245 252 255 240 216 212 224 228 228 231 231 224 226 233 232 234 240 229 221 223 225 218 213 216 217 210 201 197 196 195 195 197 201 208 215 219 226 235 242 252 265 276 281 283 278 268 264 266 274 285 296 302 304 305 309 314 318 320 321 319 317 314 311 311 312 312 313 312 310 312 318 324 327 325 321 317 313 311 313 315
234 243 244 194 178 220 235 246 260 257 245 221 211 228 231 225 226 230 227 228 232 229 225 233 236 227 223 222 219 214 209 200 193 191 188 186 189 194 198 205 213 220 225 231 238 249 262 274 279 279 279 277 269 264 266 276 287 295 302 307 308 311 315 317 317 318 318 314 311 310 311 311 310 310 311 310 308 310 315 321 325 328 331 331 330 327 324
233 235 233 233 245 244 233 222 237 251 247 212 199 229 240 234 233 237 237 237 240 238 236 242 246 236 224 218 212 204 193 180 178 185 189 190 193 197 202 210 217 222 228 236 245 258 272 278 277 275 278 280 271 266 271 280 289 298 305 309 311 314 317 317 316 316 315 313 311 310 311 312 312 310 310 310 310 309 310 312 313 316 320 325 328 329 328
236 225 210 214 235 244 241 228 231 247 251 226 212 225 237 235 233 238 242 242 241 238 240 242 233 216 203 198 191 182 176 175 177 184 190 192 197 201 205 212 219 225 233 245 257 267 275 276 273 274 278 280 272 270 274 282 291 299 306 310 313 314 316 318 318 317 315 313 312 312 312 311 311 311 310 310 309 310 310 310 308 307 310 315 321 325 328
240 228 204 212 230 243 254 251 227 232 242 235 219 214 213 212 218 229 236 234 223 213 217 218 210 201 194 189 184 177 175 181 186 187 190 193 196 200 205 213 222 232 243 255 264 270 270 269 270 273 277 279 273 271 275 282 292 301 306 309 311 312 316 320 321 318 315 314 313 312 312 311 311 312 312 311 311 312 312 311 310 311 313 316 321 325 330
241 211 189 217 231 238 250 253 243 236 237 230 220 214 204 203 218 236 236 222 206 207 206 197 190 190 189 188 190 192 192 191 189 186 185 189 192 199 209 219 228 240 251 260 267 270 268 269 271 273 277 278 273 272 276 284 293 301 305 306 308 312 317 319 317 314 312 313 314 315 315 314 314 315 314 313 313 314 314 314 314 314 316 319 322 323 326
239 178 183 216 224 219 228 239 241 242 240 230 224 222 205 200 223 240 235 218 210 210 200 185 181 190 194 193 193 192 186 178 175 173 176 183 195 207 223 236 244 252 259 266 270 272 272 273 273 274 278 280 275 272 276 285 293 299 301 302 306 313 317 318 315 311 310 313 316 319 321 320 319 318 315 314 315 316 317 316 316 317 319 320 321 324 326
245 209 211 223 221 217 228 234 235 240 242 226 215 219 213 205 219 232 232 220 207 197 187 183 190 197 194 185 177 171 165 161 161 167 179 194 211 227 243 254 259 263 268 273 276 278 278 277 276 277 281 280 273 270 277 287 293 295 296 299 305 311 316 322 321 315 315 318 320 323 324 322 320 319 317 314 315 317 319 318 317 318 321 321 321 325 330
230 236 238 234 221 224 237 238 230 234 237 225 216 224 224 213 218 230 228 205 187 184 186 190 194 189 178 170 165 161 156 154 159 179 202 217 229 240 250 256 261 265 270 274 277 278 277 277 279 282 281 274 268 268 278 287 289 289 291 298 303 306 314 324 325 321 322 324 324 326 325 321 320 320 317 315 317 320 320 319 318 319 322 321 322 328 332
217 230 238 234 216 210 224 229 223 225 234 234 228 226 223 215 218 222 208 183 176 182 184 181 177 171 166 164 162 159 158 159 174 200 214 224 231 236 243 255 263 269 272 275 276 277 278 280 283 281 271 261 259 268 281 286 285 284 287 293 299 305 314 323 325 325 327 329 328 328 327 324 323 322 318 316 320 323 321 319 320 321 322 323 326 332 337
217 228 238 239 225 213 218 223 219 214 222 232 232 224 214 204 195 189 182 174 171 171 167 162 160 159 159 159 160 165 175 186 196 202 209 221 232 242 254 264 268 272 276 276 276 281 284 283 276 264 251 246 256 275 286 285 279 279 285 290 295 303 312 318 322 326 329 331 332 332 329 326 324 322 319 318 322 324 322 321 323 325 324 325 329 335 341
207 216 230 237 233 220 219 226 229 221 218 222 220 204 183 171 166 162 159 155 152 151 151 152 152 153 157 163 169 180 193 204 209 212 220 231 240 249 262 269 274 283 288 286 286 292 290 272 250 237 237 250 268 282 286 280 274 276 284 289 293 300 306 312 319 325 330 335 336 333 330 328 324 322 321 323 326 328 326 326 328 329 328 328 331 335 340
211 223 231 226 198 174 177 216 246 195 171 154 147 147 145 144 145 143 140 140 142 146 150 152 152 155 162 173 183 192 203 213 221 228 236 245 253 260 266 269 273 277 278 280 289 303 296 256 240 243 257 268 276 281 279 274 271 276 283 287 291 297 303 309 316 322 329 337 338 334 332 332 330 328 328 329 330 331 331 331 333 334 333 334 336 337 339
172 188 193 158 133 117 99 79 97 127 122 101 87 109 133 137 134 131 131 132 136 142 147 150 153 157 160 166 177 198 218 233 243 251 255 261 268 266 260 259 261 259 258 268 285 295 287 272 267 268 267 266 269 274 274 270 269 275 281 285 288 294 300 306 313 321 329 335 336 335 336 336 331 328 331 334 334 334 335 338 338 336 335 338 340 340 341
114 91 100 111 109 103 95 84 79 91 111 114 107 109 123 131 131 128 125 125 130 141 144 143 144 148 151 165 198 225 243 254 263 271 275 279 279 272 267 265 265 266 271 282 289 288 281 275 271 265 259 258 264 270 270 267 267 272 277 281 286 290 294 300 308 317 326 333 334 334 336 336 331 328 330 334 335 337 340 343 341 338 338 340 342 343 345
133 120 118 115 109 105 100 86 74 75 95 117 122 122 127 131 130 126 124 124 131 144 149 148 154 162 171 192 222 250 274 283 283 288 291 289 286 284 281 278 279 283 291 296 293 284 277 272 261 250 251 261 270 269 264 262 267 272 274 277 281 284 287 294 302 312 322 328 330 332 333 332 328 328 331 333 335 339 343 344 342 340 341 342 344 345 347
122 123 123 117 109 106 104 101 94 86 89 103 115 124 132 136 133 129 130 134 139 145 152 158 169 181 195 217 249 276 291 290 288 292 291 284 283 283 280 282 291 301 306 305 294 277 261 249 244 253 270 278 273 265 261 261 265 270 274 276 278 279 281 287 297 307 314 319 323 326 328 326 323 326 331 333 335 340 344 342 341 341 342 343 345 347 348
129 130 124 116 114 114 113 112 108 99 95 103 115 122 129 134 131 130 135 141 143 146 154 163 174 203 241 265 277 285 288 289 291 292 286 280 279 273 269 283 299 306 302 296 291 271 245 237 248 272 284 281 269 260 259 260 264 271 275 273 272 274 278 283 291 299 304 310 315 317 318 317 318 321 326 330 334 342 344 341 339 341 342 343 345 347 348
137 134 127 124 128 127 123 122 120 114 110 114 124 129 130 130 130 132 137 143 146 149 159 174 197 235 260 270 273 278 284 289 292 291 288 288 285 277 274 284 299 306 297 287 280 260 242 244 260 275 280 275 264 257 258 260 264 270 273 270 268 272 276 279 286 293 295 301 309 311 310 311 313 316 321 326 333 340 341 337 336 337 338 339 342 345 347
127 126 123 124 127 126 124 123 122 120 121 127 134 135 131 129 131 135 137 141 151 161 175 196 220 245 261 261 260 267 278 288 291 290 290 293 295 292 288 290 303 317 314 299 277 254 248 255 267 274 274 267 258 255 259 263 265 267 268 269 270 273 275 278 283 286 288 293 301 304 305 307 309 312 317 323 329 333 334 332 331 332 332 334 338 341 343
110 113 118 119 119 119 121 123 123 128 133 134 133 133 132 132 136 140 141 145 158 169 187 225 253 270 274 269 268 276 286 290 289 283 274 270 282 296 304 305 305 308 310 305 292 282 281 282 281 277 269 261 256 257 261 264 266 268 269 270 272 273 276 280 281 282 284 289 294 295 298 302 305 307 312 317 321 324 325 324 325 326 328 329 332 336 339
107 113 117 117 114 113 119 124 128 131 133 129 123 125 136 139 139 140 141 144 152 158 198 270 285 293 291 287 289 293 296 298 297 290 276 267 271 285 298 303 300 296 293 288 286 290 294 294 288 277 265 258 258 261 263 265 268 269 270 272 274 274 275 277 278 280 282 286 289 290 293 297 300 304 308 311 314 316 317 316 316 319 321 323 326 329 333
113 112 112 113 114 116 122 127 129 129 129 126 123 131 139 139 136 134 131 126 119 109 326 305 305 306 302 298 295 293 296 304 314 316 304 283 284 298 314 318 314 309 301 291 287 289 292 290 282 270 263 262 262 263 264 267 270 270 271 273 274 275 275 275 276 278 280 283 286 289 291 294 297 300 303 304 307 310 311 311 311 314 316 318 320 323 326
115 115 117 119 120 122 126 129 126 124 126 131 133 136 139 139 135 128 120 110 93 66 357 324 318 315 309 302 300 299 296 294 300 317 339 334 318 314 313 311 308 305 300 294 291 289 286 282 274 267 266 266 266 265 268 270 270 271 272 274 274 274 275 275 275 277 281 283 285 288 290 292 295 298 299 302 304 306 305 306 308 310 312 314 316 318 321
117 119 120 123 126 129 132 131 128 128 135 135 132 132 136 138 132 125 118 105 69 18 349 328 318 314 308 298 300 306 300 283 274 282 301 310 308 304 303 302 300 297 294 291 289 285 278 272 270 270 270 269 269 271 272 273 272 272 272 274 274 274 274 275 276 279 281 283 285 287 290 292 295 297 298 300 302 303 303 304 306 308 310 311 313 315 317
122 125 127 134 141 144 141 136 136 140 140 135 130 132 138 135 127 118 105 80 37 340 330 322 306 289 281 279 283 293 301 298 295 297 302 305 304 304 304 302 299 295 290 286 283 281 278 274 272 272 272 273 275 276 276 275 275 274 273 274 275 274 274 276 278 279 280 282 284 285 287 289 291 293 295 297 299 300 301 302 303 305 307 309 310 312 315
134 138 139 142 147 146 138 128 131 139 140 135 134 139 141 136 128 118 96 62 5 340 338 337 330 282 255 271 270 266 282 300 306 305 302 300 300 300 299 297 293 290 287 284 283 284 284 280 278 277 277 276 278 280 280 279 279 279 278 278 278 277 277 279 281 281 281 283 283 284 285 288 289 289 291 293 295 296 297 299 301 302 305 306 308 310 313
133 133 130 129 133 136 132 129 137 147 150 148 148 147 144 142 160 190 151 76 341 336 336 330 323 314 297 277 270 271 282 296 303 304 300 295 294 294 293 292 290 289 288 288 287 287 286 284 282 281 280 279 279 281 281 281 281 282 282 283 284 285 285 285 285 285 285 284 284 284 286 288 289 289 291 292 293 293 294 296 298 300 302 304 306 308 310